Regional Weather Roundup
Issued by NWS Binghamton, NY

Home | Current Version | Previous Version | Text Only | Print | Product List | Glossary On
Versions: 1 2 3 4 5 6 7 8 9 10 11 12 13 14 15 16 17 18 19 20 21 22 23 24 25 26 27
000
ASUS41 KBGM 010410
RWRBGM

REGIONAL WEATHER ROUNDUP
NATIONAL WEATHER SERVICE BINGHAMTON NY
1200 AM EDT SAT OCT 01 2016

Note: "fair" indicates few or no clouds below 12,000 feet with no
significant weather and/or obstructions to visibility.

* = Station(s) that does not report precipitation, such as rain,
snow, etc, also no thunder or fog.

NYZ009-015>018-022>025-036-037-044>046-055>057-062-010500
...Central New York...

CITY           SKY/WX    TMP DP  RH WIND       PRES   REMARKS
Binghamton     CLOUDY    49  49 100 E7        30.27S FOG
Cortland       CLOUDY    52  50  93 E6        30.28F
Dansville      CLOUDY    56  49  77 SE9       30.25F
Elmira         CLOUDY    54  50  86 NE8       30.25F
Ithaca         CLOUDY    51  49  92 E6        30.27F
Hamilton       CLOUDY    52  48  87 E5        30.31S
Hornell        CLOUDY    54  48  82 SE5       30.27F
Monticello     CLOUDY    48  48 100 E13       30.29S
Norwich        CLOUDY    52  48  87 CALM      30.30F FOG
Oneonta        CLOUDY    48  48 100 E5        30.30S
Penn Yan       CLOUDY    53  50  89 CALM      30.27F
Rome           LGT RAIN  51  50  96 E6        30.34F
Sidney         CLOUDY    52  52 100 CALM      30.29F
Syracuse       DRIZZLE   52  50  93 E10       30.29F FOG
$$

PAZ038>040-043-044-047-048-072-010500
...Northeast Pennsylvania...

CITY           SKY/WX    TMP DP  RH WIND       PRES   REMARKS
Hazleton       CLOUDY    52  52 100 E6        30.24F
Scranton       CLOUDY    55  51  86 NE8       30.24F
$$
&&
KEY
WCI = Wind Chill Index
VSB = Visibility
HX  = Heat Index
$$




USA.gov is the U.S. government's official web portal to all federal, state and local government web resources and services.